Location: Beuerbach
(48.1459°N, 10.9174°E)
Time: 01:55:53
(UTC+00:00)

Meteor 1-21 - Pass Details

Date: 14 August 2024
Orbit: 845 x 885 km, 81.2° (Epoch: 09 September)

Event Time Altitude Azimuth Distance (km) Brightness Sun altitude
Rises 22:08:47 0° 359° (N) 3,419 8.5 -25.8°
Reaches altitude 10° 22:12:12 10° 20° (NNE) 2,482 7.3 -26.0°
Maximum altitude 22:15:40 16° 59° (ENE) 2,061 6.3 -26.2°
Enters shadow 22:17:37 14° 82° (E) 2,202 6.3 -26.3°
